Simultaneous Nadir Overpasses (SNOs) Predictions

Prediction of SNOs over PacNW region [( 10.00, 139.50) to ( 22.70, 165.60)] between AQUA and NPP Satellites:

Table of predicted SNOs over PacNW region for the next 30.0 days since TLE Epoch: 12/28/2018
Index Date (AQUA) Time (AQUA) AQUA Lat,Lon Date (NPP) Time (NPP) NPP Lat,Lon Distance(km) Time Diff (sec)
1 12/29/2018 15:59:19 22.60, 147.49 12/29/2018 16:02:09 23.27, 144.47 318.10 170
2 01/06/2019 15:09:53 22.62, 159.86 01/06/2019 15:11:23 23.20, 157.14 285.69 90
3 01/09/2019 03:31:44 22.67, 147.53 01/09/2019 03:28:15 24.84, 145.12 343.77 209
4 01/14/2019 15:59:21 22.60, 147.50 01/14/2019 16:02:05 23.28, 144.48 318.60 164
5 01/22/2019 15:09:54 22.59, 159.86 01/22/2019 15:11:19 23.17, 157.14 286.56 85




NCC Satellite Simultaneous Nadir Overpasses (SNOs) Prediction Service
